{"data":{"norad_id":57047,"epoch":"2026-09-21T22:08:19.264416Z","epoch_age_seconds":77132,"freshness":"FRESH","line1":"1 57047U 23087A   26264.92244519  .00132991  92598-5  24773-3 0  9998","line2":"2 57047  96.9080 329.8921 0011141 225.0421 134.9956 16.00967052190277","mean_motion":16.00967052,"eccentricity":0.0011141,"inclination_deg":96.908,"raan_deg":329.8921,"arg_perigee_deg":225.0421,"mean_anomaly_deg":134.9956,"bstar":0.00024773,"rev_number":19027,"period_min":89.945636182899,"perigee_km":264.33085363873,"apogee_km":279.14810841375,"semimajor_km":6649.8764810262,"source":"CELESTRAK","updated_at":"2026-09-22T09:00:26.000896Z"}}